User: anonymous   Login
Location: Unspecified
(0.0000°N, 0.0000°E)
Time: 17:01:37
(UTC+00:00)
Language:

PRISMA - Orbit

View from above orbital plane
View from above orbital plane
View from above satellite
View from above satellite

Ground track
Ground track

The orbit data is extracted from the following two-line orbital elements,

1 36599U 10028B   18175.14041145  .00000018  00000-0  15115-4 0  9991
2 36599  98.3453  28.5540 0054630 259.1883 100.3173 14.56001485424722
Epoch (UTC): 24 June 2018 03:22:11
Eccentricity: 0.0054630
inclination: 98.3453°
perigee height: 667 km
apogee height: 745 km
right ascension of ascending node: 28.5540°
argument of perigee: 259.1883°
revolutions per day: 14.56001485
mean anomaly at epoch: 100.3173°
orbit number at epoch: 42472

The dashed part of the orbit path shows where the satellite is in the earth's shadow,  

DLR